Tracking 22458 objects as of 2-Mar-2021
HD Live streaming from Space Station
objects crossing your sky now

OBJECT E

Track OBJECT E now!
10-day predictions


NORAD ID: 45020
Int'l Code: 2020-003E
Perigee: 481.0 km
Apogee: 498.7 km
Inclination: 97.2 °
Period: 94.3 minutes
Semi major axis: 6860 km
RCS: Unknown
Launch date: January 15, 2020
Source: (TBD)
Launch site: Taiyaun Space Center, China (TSC)
aabbcc
Your satellite tracking list
Your tracking list is empty




NASA's NSSDC Master Catalog

Two Line Element Set (TLE):
1 45020U 20003E   21060.09858300  .00004350  00000-0  16299-3 0  9990
2 45020  97.1651 119.9553 0012903  79.9576 280.3087 15.27698721 62704
Source of the keplerian elements: AFSPC